Location: Igloolik
(69.3800°N, 81.8000°W)
Time: 02:50:22
(UTC-05:00)

Amateur Radio Satellites - All Passes

Search period start: 24 April 2014 02:20
Search period end: 25 April 2014 02:20
Location: Igloolik, 69.3800°N, 81.8000°W

Satellite Date Start Highest point End Downlink Frequencies (MHz)
Time Altitude Azimuth
AO-27 24 Apr 02:26:15 02:31:09 40° 97° (E) 02:36:01 436.795 MHz FM
Oscar 19 24 Apr 02:29:19 02:34:29 56° 104° (ESE) 02:39:37 437.125 CW, 437.150 USB
MaSat-1 24 Apr 02:30:48 02:33:20 67° 200° (SSW) 02:36:06 437.345 MHz
KITSAT 1 24 Apr 02:35:22 02:42:29 35° 125° (SE) 02:49:36 435.175 FM
ITAMSAT 1 24 Apr 02:35:39 02:40:37 43° 99° (E) 02:45:34 435.822 SSB
Sapphire 24 Apr 02:36:09 02:41:30 60° 159° (SSE) 02:46:51 437.095 MHz 1200 baud AX-25 AFSK
Oscar 16 24 Apr 02:38:33 02:43:45 63° 107° (ESE) 02:48:56 437.025 USB, Beacon 2401.1428
OPAL 24 Apr 02:45:29 02:50:08 34° 263° (W) 02:54:52 ?
Gurwin Techsat 1B 24 Apr 02:46:17 02:50:56 30° 89° (E) 02:55:34 435.225 FM
JAS-1B 24 Apr 03:11:19 03:15:58 24° 82° (E) 03:20:32 435.800 - 435.900 CW/SSB
PCSat 24 Apr 03:20:28 03:25:53 68° 170° (S) 03:31:18 145.825 MHz
Uribyol 2 24 Apr 03:22:56 03:28:08 72° 110° (ESE) 03:33:20 436.500 FM
AO-7 24 Apr 03:29:10 03:35:50 26° 78° (ENE) 03:42:29 29.400 - 29.500 MHz
TMSAT-1 24 Apr 03:31:18 03:36:18 39° 96° (E) 03:41:16 436.925 FM
AO-Echo 24 Apr 03:31:41 03:36:34 71° 110° (ESE) 03:41:19 ?
STRAND 1 24 Apr 03:51:59 03:56:50 45° 44° (NE) 04:01:41 ?
Uosat F 24 Apr 03:54:12 03:58:34 29° 90° (E) 04:02:54 435.120 FM
AO-27 24 Apr 04:05:56 04:11:09 79° 300° (WNW) 04:16:20 436.795 MHz FM
Oscar 19 24 Apr 04:08:52 04:14:00 59° 307° (NW) 04:19:07 437.125 CW, 437.150 USB
MaSat-1 24 Apr 04:09:11 04:11:25 25° 222° (SW) 04:13:51 437.345 MHz
ITAMSAT 1 24 Apr 04:15:20 04:20:31 74° 302° (WNW) 04:25:42 435.822 SSB
Oscar 16 24 Apr 04:18:06 04:23:10 54° 310° (NW) 04:28:14 437.025 USB, Beacon 2401.1428
Sapphire 24 Apr 04:19:19 04:24:44 71° 183° (S) 04:30:09 437.095 MHz 1200 baud AX-25 AFSK
Gurwin Techsat 1B 24 Apr 04:26:21 04:31:43 78° 112° (ESE) 04:37:03 435.225 FM
OPAL 24 Apr 04:28:36 04:30:40 12° 287° (WNW) 04:32:46 ?
KITSAT 1 24 Apr 04:28:51 04:36:47 59° 152° (SSE) 04:44:43 435.175 FM
RS-15 24 Apr 04:34:40 04:41:27 19° 95° (E) 04:48:10 29.354 - 29.394 USB, Beacon 29.352 USB
Hamsat 24 Apr 05:00:35 05:02:47 14° 74° (ENE) 05:04:59 145.90 MHz
JAS-1B 24 Apr 05:02:09 05:07:59 65° 108° (ESE) 05:13:40 435.800 - 435.900 CW/SSB
Uribyol 2 24 Apr 05:02:36 05:07:35 49° 314° (NW) 05:12:34 436.500 FM
PCSat 24 Apr 05:03:44 05:09:08 65° 195° (SSW) 05:14:32 145.825 MHz
AO-Echo 24 Apr 05:10:38 05:15:18 45° 313° (NW) 05:19:50 ?
TMSAT-1 24 Apr 05:11:24 05:16:44 81° 299° (WNW) 05:22:03 436.925 FM
AO-7 24 Apr 05:22:29 05:30:39 55° 105° (ESE) 05:38:49 29.400 - 29.500 MHz
STRAND 1 24 Apr 05:30:46 05:35:54 79° 247° (WSW) 05:41:03 ?
Uosat F 24 Apr 05:33:03 05:38:06 79° 113° (ESE) 05:43:08 435.120 FM
AO-27 24 Apr 05:45:34 05:50:19 37° 323° (NW) 05:55:02 436.795 MHz FM
Oscar 19 24 Apr 05:48:14 05:52:45 31° 331° (NNW) 05:57:16 437.125 CW, 437.150 USB
ITAMSAT 1 24 Apr 05:54:56 05:59:36 35° 325° (NW) 06:04:16 435.822 SSB
Oscar 16 24 Apr 05:57:26 06:01:51 29° 334° (NNW) 06:06:17 437.025 USB, Beacon 2401.1428
Sapphire 24 Apr 06:02:38 06:07:55 53° 208° (SSW) 06:13:11 437.095 MHz 1200 baud AX-25 AFSK
Gurwin Techsat 1B 24 Apr 06:06:30 06:11:34 46° 315° (NW) 06:16:37 435.225 FM
SO-67 24 Apr 06:12:36 06:13:37 11° 76° (ENE) 06:14:37 435.3500 MHz FM
JAS-2 24 Apr 06:15:58 06:20:01 22° 82° (E) 06:24:16 435.800 - 435.900 CW/SSB, 435.910 FM
KITSAT 1 24 Apr 06:23:41 06:31:47 72° 179° (S) 06:39:51 435.175 FM
Hamsat 24 Apr 06:35:50 06:39:58 40° 97° (E) 06:44:06 145.90 MHz
RS-15 24 Apr 06:40:41 06:50:34 40° 125° (SE) 07:00:18 29.354 - 29.394 USB, Beacon 29.352 USB
Uribyol 2 24 Apr 06:42:00 06:46:20 28° 337° (NNW) 06:50:40 436.500 FM
PCSat 24 Apr 06:47:03 06:52:07 41° 219° (SW) 06:57:10 145.825 MHz
AO-Echo 24 Apr 06:49:22 06:53:19 25° 337° (NNW) 06:57:11 ?
TMSAT-1 24 Apr 06:51:27 06:56:19 38° 322° (NW) 07:01:10 436.925 FM
JAS-1B 24 Apr 06:53:05 06:58:49 54° 314° (NW) 07:04:20 435.800 - 435.900 CW/SSB
STRAND 1 24 Apr 07:11:27 07:15:52 29° 270° (W) 07:20:19 ?
Uosat F 24 Apr 07:12:01 07:16:46 44° 316° (NW) 07:21:30 435.120 FM
AO-7 24 Apr 07:15:44 07:24:04 81° 311° (NW) 07:32:25 29.400 - 29.500 MHz
AO-27 24 Apr 07:24:46 07:28:53 25° 347° (NNW) 07:33:00 436.795 MHz FM
Oscar 19 24 Apr 07:27:00 07:31:01 23° 355° (N) 07:35:01 437.125 CW, 437.150 USB
ITAMSAT 1 24 Apr 07:34:03 07:38:08 24° 349° (N) 07:42:12 435.822 SSB
Oscar 16 24 Apr 07:36:06 07:40:06 23° 358° (N) 07:44:06 437.025 USB, Beacon 2401.1428
SO-67 24 Apr 07:44:25 07:47:46 38° 99° (E) 07:51:05 435.3500 MHz FM
Sapphire 24 Apr 07:46:01 07:50:35 28° 232° (SW) 07:55:07 437.095 MHz 1200 baud AX-25 AFSK
Gurwin Techsat 1B 24 Apr 07:46:19 07:50:44 27° 339° (NNW) 07:55:08 435.225 FM
JAS-2 24 Apr 08:01:05 08:06:17 59° 106° (ESE) 08:11:52 435.800 - 435.900 CW/SSB, 435.910 FM
HO-68 24 Apr 08:04:55 08:10:24 23° 76° (ENE) 08:15:52 435.675 MHz FM
Hamsat 24 Apr 08:11:55 08:16:15 66° 300° (WNW) 08:20:36 145.90 MHz
KITSAT 1 24 Apr 08:18:50 08:26:48 61° 206° (SSW) 08:34:44 435.175 FM
Uribyol 2 24 Apr 08:20:42 08:24:41 23° 1° (N) 08:28:41 436.500 FM
AO-Echo 24 Apr 08:27:22 08:30:57 21° 1° (N) 08:34:28 ?
Oscar 11 24 Apr 08:29:02 08:30:49 12° 73° (ENE) 08:32:36 145.825 FM, Beacon 2401.500 USB
PCSat 24 Apr 08:30:43 08:34:26 19° 243° (WSW) 08:38:08 145.825 MHz
TMSAT-1 24 Apr 08:31:03 08:35:17 25° 346° (NNW) 08:39:31 436.925 FM
JAS-1B 24 Apr 08:43:32 08:48:45 32° 342° (NNW) 08:53:42 435.800 - 435.900 CW/SSB
RS-15 24 Apr 08:50:32 09:01:18 63° 155° (SSE) 09:12:00 29.354 - 29.394 USB, Beacon 29.352 USB
Uosat F 24 Apr 08:50:41 08:54:46 26° 340° (NNW) 08:58:51 435.120 FM
STRAND 1 24 Apr 08:56:08 08:56:52 10° 295° (WNW) 08:57:36 ?
AO-27 24 Apr 09:03:08 09:07:14 24° 11° (NNE) 09:11:20 436.795 MHz FM
Oscar 19 24 Apr 09:04:58 09:09:11 26° 19° (NNE) 09:13:25 437.125 CW, 437.150 USB
AO-7 24 Apr 09:08:29 09:16:27 53° 338° (NNW) 09:24:26 29.400 - 29.500 MHz
ITAMSAT 1 24 Apr 09:12:20 09:16:28 25° 13° (NNE) 09:20:35 435.822 SSB
Oscar 16 24 Apr 09:14:00 09:18:18 27° 22° (NNE) 09:22:37 437.025 USB, Beacon 2401.1428
SO-67 24 Apr 09:17:38 09:21:05 54° 300° (WNW) 09:24:32 435.3500 MHz FM
Gurwin Techsat 1B 24 Apr 09:25:24 09:29:32 24° 3° (N) 09:33:39 435.225 FM
Sapphire 24 Apr 09:31:03 09:32:26 11° 255° (WSW) 09:33:49 437.095 MHz 1200 baud AX-25 AFSK
JAS-2 24 Apr 09:46:29 09:51:36 56° 309° (NW) 09:57:02 435.800 - 435.900 CW/SSB, 435.910 FM
Hamsat 24 Apr 09:48:06 09:51:47 28° 322° (NW) 09:55:29 145.90 MHz
HO-68 24 Apr 09:52:51 09:59:53 52° 102° (ESE) 10:06:53 435.675 MHz FM
Uribyol 2 24 Apr 09:58:40 10:03:04 29° 25° (NNE) 10:07:28 436.500 FM
Oscar 11 24 Apr 10:04:14 10:08:18 36° 96° (E) 10:12:22 145.825 FM, Beacon 2401.500 USB
AO-Echo 24 Apr 10:04:32 10:08:36 26° 25° (NNE) 10:12:34 ?
TMSAT-1 24 Apr 10:09:50 10:14:01 24° 11° (N) 10:18:11 436.925 FM
FUNcube-1 24 Apr 10:10:00 10:13:23 23° 87° (E) 10:16:49 145.950 - 145.970 MHz USB
KITSAT 1 24 Apr 10:13:57 10:21:10 37° 233° (SW) 10:28:22 435.175 FM
Oscar 10/S400 24 Apr 10:28:03 11:39:31 27° 220° (SW) 15:31:25 145.825 - 145.975 CW/USB, Beacon 145.810 USB
Uosat F 24 Apr 10:28:37 10:32:26 22° 4° (N) 10:36:16 435.120 FM
JAS-1B 24 Apr 10:33:03 10:38:16 29° 9° (N) 10:43:07 435.800 - 435.900 CW/SSB
AO-27 24 Apr 10:41:06 10:45:47 36° 35° (NE) 10:50:29 436.795 MHz FM
Oscar 19 24 Apr 10:42:48 10:47:41 43° 43° (NE) 10:52:35 437.125 CW, 437.150 USB
ITAMSAT 1 24 Apr 10:50:17 10:55:02 37° 37° (NE) 10:59:47 435.822 SSB
SO-67 24 Apr 10:51:06 10:53:44 20° 322° (NW) 10:56:21 435.3500 MHz FM
Oscar 16 24 Apr 10:51:56 10:56:53 47° 46° (NE) 11:01:52 437.025 USB, Beacon 2401.1428
AO-7 24 Apr 11:00:30 11:08:17 47° 4° (N) 11:16:06 29.400 - 29.500 MHz
RS-15 24 Apr 11:02:04 11:12:56 71° 185° (S) 11:23:48 29.354 - 29.394 USB, Beacon 29.352 USB
Saudisat 1A 24 Apr 11:03:46 11:07:15 23° 138° (SE) 11:10:43 436.775 MHz
Gurwin Techsat 1B 24 Apr 11:03:48 11:08:23 30° 28° (NNE) 11:12:59 435.225 FM
Hamsat 24 Apr 11:23:57 11:26:46 17° 345° (NNW) 11:29:36 145.90 MHz
JAS-2 24 Apr 11:31:39 11:36:06 30° 334° (NNW) 11:40:45 435.800 - 435.900 CW/SSB, 435.910 FM
Uribyol 2 24 Apr 11:36:51 11:41:52 53° 49° (NE) 11:46:55 436.500 FM
Oscar 11 24 Apr 11:40:30 11:44:53 73° 299° (WNW) 11:49:15 145.825 FM, Beacon 2401.500 USB
HO-68 24 Apr 11:40:55 11:48:07 79° 307° (NW) 11:55:19 435.675 MHz FM
AO-Echo 24 Apr 11:41:50 11:46:39 47° 48° (NE) 11:51:20 ?
FUNcube-1 24 Apr 11:46:17 11:50:32 72° 109° (ESE) 11:54:51 145.950 - 145.970 MHz USB
TMSAT-1 24 Apr 11:48:10 11:52:55 35° 35° (NE) 11:57:42 436.925 FM
Uosat F 24 Apr 12:05:53 12:10:10 29° 28° (NNE) 12:14:28 435.120 FM
KITSAT 1 24 Apr 12:09:39 12:14:25 17° 259° (WSW) 12:19:10 435.175 FM
AO-27 24 Apr 12:19:43 12:24:55 75° 59° (ENE) 12:30:07 436.795 MHz FM
Oscar 19 24 Apr 12:21:38 12:26:50 85° 246° (WSW) 12:32:06 437.125 CW, 437.150 USB
JAS-1B 24 Apr 12:21:58 12:27:59 42° 35° (NE) 12:33:25 435.800 - 435.900 CW/SSB
SO-67 24 Apr 12:24:37 12:25:52 12° 345° (NNW) 12:27:07 435.3500 MHz FM
ITAMSAT 1 24 Apr 12:29:00 12:34:11 81° 61° (ENE) 12:39:24 435.822 SSB
Oscar 16 24 Apr 12:30:58 12:36:09 75° 249° (WSW) 12:41:24 437.025 USB, Beacon 2401.1428
Saudisat 1A 24 Apr 12:41:54 12:46:05 39° 161° (SSE) 12:50:14 436.775 MHz
Gurwin Techsat 1B 24 Apr 12:42:31 12:47:43 57° 51° (NE) 12:52:57 435.225 FM
AO-7 24 Apr 12:52:10 13:00:14 60° 31° (NNE) 13:08:21 29.400 - 29.500 MHz
Hamsat 24 Apr 12:58:52 13:01:31 16° 9° (N) 13:04:12 145.90 MHz
RS-15 24 Apr 13:13:52 13:24:22 56° 216° (SW) 13:34:55 29.354 - 29.394 USB, Beacon 29.352 USB
JAS-2 24 Apr 13:16:05 13:20:07 23° 359° (N) 13:24:14 435.800 - 435.900 CW/SSB, 435.910 FM
Uribyol 2 24 Apr 13:16:16 13:21:25 64° 252° (WSW) 13:26:35 436.500 FM
Oscar 11 24 Apr 13:16:53 13:20:41 30° 321° (NW) 13:24:30 145.825 FM, Beacon 2401.500 USB
AO-Echo 24 Apr 13:20:19 13:25:24 71° 250° (WSW) 13:30:20 ?
FUNcube-1 24 Apr 13:22:55 13:26:52 40° 312° (NW) 13:30:53 145.950 - 145.970 MHz USB
TMSAT-1 24 Apr 13:27:07 13:32:24 72° 58° (ENE) 13:37:43 436.925 FM
HO-68 24 Apr 13:28:37 13:35:24 47° 332° (NNW) 13:42:11 435.675 MHz FM
Uosat F 24 Apr 13:43:27 13:48:22 56° 51° (NE) 13:53:17 435.120 FM
SO-67 24 Apr 13:57:00 13:57:47 11° 8° (N) 13:58:35 435.3500 MHz FM
AO-27 24 Apr 13:59:56 14:04:52 42° 262° (W) 14:09:48 436.795 MHz FM
Oscar 19 24 Apr 14:02:16 14:06:53 32° 269° (W) 14:11:32 437.125 CW, 437.150 USB
ITAMSAT 1 24 Apr 14:09:21 14:14:12 39° 264° (W) 14:19:04 435.822 SSB
JAS-1B 24 Apr 14:11:40 14:18:25 84° 60° (ENE) 14:24:19 435.800 - 435.900 CW/SSB
Oscar 16 24 Apr 14:11:55 14:16:20 28° 272° (W) 14:20:48 437.025 USB, Beacon 2401.1428
Saudisat 1A 24 Apr 14:20:57 14:25:13 46° 184° (S) 14:29:28 436.775 MHz
Gurwin Techsat 1B 24 Apr 14:22:33 14:27:49 60° 255° (WSW) 14:33:07 435.225 FM
Hamsat 24 Apr 14:32:59 14:36:24 24° 32° (NNE) 14:39:51 145.90 MHz
OPAL 24 Apr 14:39:48 14:44:11 26° 91° (E) 14:48:33 ?
AO-7 24 Apr 14:44:35 14:52:55 85° 237° (WSW) 15:01:18 29.400 - 29.500 MHz
SO-50 24 Apr 14:52:00 14:54:53 17° 129° (SE) 14:57:47 436.795 FM
Oscar 11 24 Apr 14:52:57 14:55:56 18° 344° (NNW) 14:58:55 145.825 FM, Beacon 2401.500 USB
Uribyol 2 24 Apr 14:57:45 15:01:53 24° 276° (W) 15:06:02 436.500 FM
FUNcube-1 24 Apr 14:59:27 15:02:33 20° 334° (NNW) 15:05:41 145.950 - 145.970 MHz USB
JAS-2 24 Apr 14:59:41 15:04:06 29° 25° (NNE) 15:08:34 435.800 - 435.900 CW/SSB, 435.910 FM
AO-Echo 24 Apr 15:00:48 15:05:00 25° 273° (W) 15:09:06 ?
TMSAT-1 24 Apr 15:07:38 15:12:43 45° 261° (W) 15:17:49 436.925 FM
HO-68 24 Apr 15:15:37 15:22:05 38° 358° (N) 15:28:34 435.675 MHz FM
Uosat F 24 Apr 15:22:19 15:27:17 58° 254° (WSW) 15:32:16 435.120 FM
RS-15 24 Apr 15:25:34 15:34:36 32° 246° (WSW) 15:43:43 29.354 - 29.394 USB, Beacon 29.352 USB
SO-67 24 Apr 15:27:37 15:29:49 16° 30° (NNE) 15:32:02 435.3500 MHz FM
AO-27 24 Apr 15:42:43 15:45:48 16° 286° (WNW) 15:48:54 436.795 MHz FM
Oscar 19 24 Apr 15:46:11 15:47:58 12° 293° (WNW) 15:49:46 437.125 CW, 437.150 USB
ITAMSAT 1 24 Apr 15:52:26 15:55:13 14° 288° (WNW) 15:57:59 435.822 SSB
Saudisat 1A 24 Apr 16:00:17 16:04:17 33° 208° (SSW) 16:08:15 436.775 MHz
JAS-1B 24 Apr 16:03:25 16:09:46 41° 264° (W) 16:15:22 435.800 - 435.900 CW/SSB
Gurwin Techsat 1B 24 Apr 16:04:45 16:08:53 22° 278° (W) 16:13:02 435.225 FM
Hamsat 24 Apr 16:07:37 16:11:46 51° 55° (NE) 16:15:59 145.90 MHz
OPAL 24 Apr 16:18:42 16:23:57 69° 114° (ESE) 16:29:11 ?
Oscar 11 24 Apr 16:28:08 16:30:55 17° 8° (N) 16:33:43 145.825 FM, Beacon 2401.500 USB
SO-50 24 Apr 16:30:22 16:34:26 34° 152° (SSE) 16:38:35 436.795 FM
FUNcube-1 24 Apr 16:35:21 16:37:50 16° 358° (N) 16:40:21 145.950 - 145.970 MHz USB
AO-7 24 Apr 16:38:58 16:46:46 43° 264° (W) 16:54:37 29.400 - 29.500 MHz
JAS-2 24 Apr 16:43:28 16:48:35 55° 50° (NE) 16:53:41 435.800 - 435.900 CW/SSB, 435.910 FM
UOSAT-12 24 Apr 16:43:58 16:46:43 16° 126° (SE) 16:49:30 437.025 FM, 437.400 FM
TMSAT-1 24 Apr 16:50:38 16:54:02 17° 285° (WNW) 16:57:27 436.925 FM
SO-67 24 Apr 16:59:01 17:02:16 36° 52° (NE) 17:05:32 435.3500 MHz FM
HO-68 24 Apr 17:02:03 17:08:45 45° 24° (NNE) 17:15:28 435.675 MHz FM
Uosat F 24 Apr 17:03:21 17:07:08 21° 277° (W) 17:10:56 435.120 FM
STRAND 1 24 Apr 17:27:05 17:30:03 15° 74° (ENE) 17:33:01 ?
RS-15 24 Apr 17:38:43 17:43:00 13° 275° (W) 17:47:18 29.354 - 29.394 USB, Beacon 29.352 USB
Saudisat 1A 24 Apr 17:40:07 17:42:54 17° 230° (SW) 17:45:41 436.775 MHz
Hamsat 24 Apr 17:43:39 17:47:51 53° 257° (WSW) 17:52:07 145.90 MHz
OPAL 24 Apr 17:57:46 18:02:50 53° 317° (NW) 18:07:55 ?
JAS-1B 24 Apr 17:58:28 18:02:16 16° 289° (WNW) 18:05:50 435.800 - 435.900 CW/SSB
Oscar 11 24 Apr 18:02:33 18:06:02 24° 31° (NNE) 18:09:32 145.825 FM, Beacon 2401.500 USB
SO-50 24 Apr 18:10:06 18:14:27 47° 175° (S) 18:18:53 436.795 FM
FUNcube-1 24 Apr 18:10:10 18:13:05 19° 21° (NNE) 18:16:02 145.950 - 145.970 MHz USB
UOSAT-12 24 Apr 18:21:38 18:25:47 32° 149° (SSE) 18:29:59 437.025 FM, 437.400 FM
JAS-2 24 Apr 18:28:41 18:33:53 58° 255° (WSW) 18:39:03 435.800 - 435.900 CW/SSB, 435.910 FM
SO-67 24 Apr 18:31:51 18:35:21 61° 254° (WSW) 18:38:52 435.3500 MHz FM
AO-7 24 Apr 18:36:30 18:42:08 19° 291° (WNW) 18:47:47 29.400 - 29.500 MHz
HO-68 24 Apr 18:48:47 18:55:55 73° 49° (NE) 19:03:05 435.675 MHz FM
STRAND 1 24 Apr 19:05:48 19:10:40 41° 98° (E) 19:15:30 ?
Hamsat 24 Apr 19:21:55 19:24:49 17° 280° (W) 19:27:44 145.90 MHz
OPAL 24 Apr 19:36:32 19:41:05 32° 341° (NNW) 19:45:39 ?
Oscar 11 24 Apr 19:37:24 19:41:37 51° 54° (NE) 19:45:52 145.825 FM, Beacon 2401.500 USB
FUNcube-1 24 Apr 19:44:54 19:48:41 34° 45° (NE) 19:52:30 145.950 - 145.970 MHz USB
SO-50 24 Apr 19:50:16 19:54:33 40° 199° (SSW) 19:58:54 436.795 FM
UOSAT-12 24 Apr 20:00:52 20:05:21 47° 172° (S) 20:09:54 437.025 FM, 437.400 FM
SO-67 24 Apr 20:06:53 20:09:12 17° 276° (W) 20:11:33 435.3500 MHz FM
JAS-2 24 Apr 20:16:19 20:20:14 21° 279° (W) 20:24:07 435.800 - 435.900 CW/SSB, 435.910 FM
HO-68 24 Apr 20:36:57 20:44:00 58° 254° (WSW) 20:51:07 435.675 MHz FM
STRAND 1 24 Apr 20:45:10 20:50:17 75° 301° (WNW) 20:55:23 ?
Oscar 11 24 Apr 21:13:38 21:17:54 54° 256° (WSW) 21:22:13 145.825 FM, Beacon 2401.500 USB
OPAL 24 Apr 21:14:40 21:19:00 28° 4° (N) 21:23:22 ?
FUNcube-1 24 Apr 21:20:42 21:24:53 86° 247° (WSW) 21:29:08 145.950 - 145.970 MHz USB
SO-50 24 Apr 21:30:44 21:34:21 23° 222° (SW) 21:38:01 436.795 FM
MaSat-1 24 Apr 21:40:14 21:42:10 20° 134° (SE) 21:44:08 437.345 MHz
UOSAT-12 24 Apr 21:40:36 21:45:04 43° 196° (SSW) 21:49:33 437.025 FM, 437.400 FM
STRAND 1 24 Apr 22:24:28 22:29:05 35° 324° (NW) 22:33:41 ?
HO-68 24 Apr 22:27:33 22:33:19 25° 280° (W) 22:39:07 435.675 MHz FM
Sapphire 24 Apr 22:44:12 22:46:26 13° 108° (ESE) 22:48:40 437.095 MHz 1200 baud AX-25 AFSK
Oscar 11 24 Apr 22:52:05 22:55:04 18° 279° (W) 22:58:04 145.825 FM, Beacon 2401.500 USB
OPAL 24 Apr 22:52:18 22:57:00 36° 28° (NNE) 23:01:44 ?
FUNcube-1 24 Apr 22:58:23 23:01:55 26° 270° (W) 23:05:30 145.950 - 145.970 MHz USB
MaSat-1 24 Apr 23:17:41 23:20:08 62° 158° (SSE) 23:22:42 437.345 MHz
UOSAT-12 24 Apr 23:20:35 23:24:31 26° 219° (SW) 23:28:26 437.025 FM, 437.400 FM
PCSat 24 Apr 23:26:13 23:30:02 20° 118° (ESE) 23:33:52 145.825 MHz
STRAND 1 25 Apr 00:03:19 00:07:19 24° 348° (NNW) 00:11:19 ?
Oscar 19 25 Apr 00:18:54 00:21:55 15° 73° (ENE) 00:24:55 437.125 CW, 437.150 USB
AO-27 25 Apr 00:19:29 00:20:44 11° 66° (ENE) 00:22:00 436.795 MHz FM
HO-68 25 Apr 00:23:14 00:24:03 10° 308° (NW) 00:24:53 435.675 MHz FM
Sapphire 25 Apr 00:23:42 00:28:24 31° 131° (SE) 00:33:06 437.095 MHz 1200 baud AX-25 AFSK
Oscar 16 25 Apr 00:28:08 00:31:32 17° 76° (ENE) 00:34:57 437.025 USB, Beacon 2401.1428
ITAMSAT 1 25 Apr 00:28:11 00:30:04 12° 68° (ENE) 00:31:57 435.822 SSB
OPAL 25 Apr 00:30:19 00:35:27 70° 51° (NE) 00:40:39 ?
MaSat-1 25 Apr 00:55:56 00:58:26 86° 2° (N) 01:01:09 437.345 MHz
KITSAT 1 25 Apr 00:59:22 01:04:47 20° 106° (ESE) 01:10:11 435.175 FM
UOSAT-12 25 Apr 01:01:51 01:03:22 11° 241° (WSW) 01:04:53 437.025 FM, 437.400 FM
PCSat 25 Apr 01:07:18 01:12:23 42° 142° (SE) 01:17:29 145.825 MHz
AO-Echo 25 Apr 01:13:14 01:16:14 16° 76° (ENE) 01:19:12 ?
Uribyol 2 25 Apr 01:14:14 01:18:00 20° 80° (E) 01:21:45 436.500 FM
TMSAT-1 25 Apr 01:29:10 01:30:59 12° 66° (ENE) 01:32:48 436.925 FM
STRAND 1 25 Apr 01:41:20 01:45:21 24° 12° (NNE) 01:49:22 ?
AO-27 25 Apr 01:57:31 02:02:04 30° 90° (E) 02:06:36 436.795 MHz FM
Oscar 19 25 Apr 01:57:47 02:02:43 41° 97° (E) 02:07:39 437.125 CW, 437.150 USB
Sapphire 25 Apr 02:05:50 02:11:09 56° 155° (SSE) 02:16:28 437.095 MHz 1200 baud AX-25 AFSK
ITAMSAT 1 25 Apr 02:06:37 02:11:17 32° 92° (E) 02:15:55 435.822 SSB
Oscar 16 25 Apr 02:07:11 02:12:14 46° 100° (E) 02:17:15 437.025 USB, Beacon 2401.1428
OPAL 25 Apr 02:09:40 02:14:38 48° 254° (WSW) 02:19:42 ?
